User: anonymous   Login
Location: Pacheco
(37.9835°N, 122.0752°W)
Time: 17:57:34
(UTC+00:00)
Language:

Cosmos 1553 Rocket - Orbit

View from above orbital plane
View from above orbital plane
View from above satellite
View from above satellite

Ground track
Ground track

The orbit data is extracted from the following two-line orbital elements,

1 14974U 84046B   24172.72320163  .00000062  00000-0  46615-4 0  9991
2 14974  82.9364  37.2984 0045883  36.7555  28.0429 13.77059272 14273
Epoch (UTC): 20 June 2024 17:21:24
Eccentricity: 0.0045883
inclination: 82.9364°
perigee height: 940 km
apogee height: 1008 km
right ascension of ascending node: 37.2984°
argument of perigee: 36.7555°
revolutions per day: 13.77059272
mean anomaly at epoch: 28.0429°
orbit number at epoch: 1427

The dashed part of the orbit path shows where the satellite is in the earth's shadow,  

DLR